Location: *
(37.5724°S, 58.0067°E)
Time: 11:30:58
(UTC+00:00)

Cosmos 2227 Rocket - Pass Details

Date: 26 September 2020
Orbit: 840 x 844 km, 71.0° (Epoch: 29 October)

Event Time Altitude Azimuth Distance (km) Brightness Sun altitude
Exits shadow 22:13:12 20° 99° (E) 1,878 4.4 -40.0°
Drops below altitude 10° 22:16:04 10° 128° (SE) 2,490 5.3 -39.5°
Sets 22:19:04 0° 142° (SE) 3,434 6.3 -39.1°
